NBT401 LIRF-KJFK

Flight info

Callsign NBT401
Flight time N/A
Altitude 36000
Route XENOL5AXNEMBO7A/25 NEMBO DCT ELB DCT TIDKA DCT RONOP DCT GIGUS DCT BALSI DCT GIPNO DCT RUSIT DCT TIS/N0481F370 DCT LMG/N0480F360 DCT MANAK UY110 TIRAV UT183 BAGAD/N0486F380 DCT ALUTA DCT TAKAS/M084F380 DCT ODANU DCT RODEL DCT 51N020W 52N030W 52N040W 51N050W DCT ALLRY/N0489F380 N468A TUSKY DCT PLYMM PARCH3
Aircraft B789/H-SDE1E2E3FGHIJ2J3J4J5M1RWXY/LB1D1

Departure

Time N/A
Airport Rome–Fiumicino Leonardo da Vinci International Airport (LIRF)

Arrival

Time 2026-05-09 18:15
Airport John F. Kennedy International Airport (KJFK)
Time Latitude Longitude Altitude Speed Heading
2026-05-09 18:15 40.63295 -73.76850 26 ft 0 kts 299°
2026-05-09 18:16 40.63323 -73.76908 31 ft 11 kts 302°
2026-05-09 18:16 40.63366 -73.76999 31 ft 12 kts 301°
2026-05-09 18:17 40.63409 -73.77094 29 ft 12 kts 300°
2026-05-09 18:17 40.63454 -73.77193 32 ft 13 kts 301°
2026-05-09 18:17 40.63491 -73.77275 31 ft 10 kts 301°
2026-05-09 18:17 40.63515 -73.77326 32 ft 0 kts 301°
2026-05-09 18:18 40.63528 -73.77356 26 ft 7 kts 301°
2026-05-09 18:18 40.63560 -73.77426 27 ft 13 kts 302°
2026-05-09 18:19 40.63614 -73.77541 26 ft 12 kts 300°
2026-05-09 18:19 40.63670 -73.77665 31 ft 5 kts 275°
2026-05-09 18:19 40.63641 -73.77720 31 ft 10 kts 217°
2026-05-09 18:20 40.63566 -73.77780 31 ft 13 kts 209°
2026-05-09 18:20 40.63496 -73.77835 30 ft 12 kts 211°
2026-05-09 18:20 40.63429 -73.77902 26 ft 12 kts 232°
2026-05-09 18:20 40.63405 -73.77991 28 ft 9 kts 268°
2026-05-09 18:21 40.63422 -73.78073 26 ft 9 kts 300°
2026-05-09 18:21 40.63473 -73.78180 26 ft 21 kts 301°
2026-05-09 18:21 40.63543 -73.78335 26 ft 19 kts 301°
2026-05-09 18:21 40.63605 -73.78472 27 ft 16 kts 300°
2026-05-09 18:22 40.63661 -73.78596 27 ft 15 kts 301°
2026-05-09 18:22 40.63711 -73.78707 27 ft 13 kts 301°
2026-05-09 18:22 40.63760 -73.78816 27 ft 16 kts 300°
2026-05-09 18:22 40.63818 -73.78941 32 ft 16 kts 301°
2026-05-09 18:23 40.63873 -73.79062 32 ft 15 kts 301°
2026-05-09 18:23 40.63940 -73.79210 31 ft 27 kts 300°
2026-05-09 18:23 40.64037 -73.79422 31 ft 14 kts 302°
2026-05-09 18:23 40.64099 -73.79497 31 ft 12 kts 336°
2026-05-09 18:24 40.64178 -73.79504 29 ft 14 kts
2026-05-09 18:24 40.64307 -73.79495 29 ft 20 kts
2026-05-09 18:24 40.64445 -73.79495 29 ft 20 kts 355°
2026-05-09 18:25 40.64677 -73.79596 27 ft 17 kts 326°
2026-05-09 18:25 40.64777 -73.79683 25 ft 17 kts 333°
2026-05-09 18:25 40.64887 -73.79703 28 ft 15 kts
2026-05-09 18:25 40.64990 -73.79698 28 ft 14 kts
2026-05-09 18:26 40.65065 -73.79635 30 ft 13 kts 54°
2026-05-09 18:26 40.65111 -73.79534 28 ft 13 kts 61°
2026-05-09 18:26 40.65143 -73.79457 26 ft 16 kts 61°
2026-05-09 18:26 40.65197 -73.79327 27 ft 16 kts 66°
2026-05-09 18:27 40.65196 -73.79156 26 ft 19 kts 108°
2026-05-09 18:27 40.65164 -73.79034 30 ft 21 kts 109°
2026-05-09 18:27 40.65137 -73.78855 29 ft 19 kts 91°
2026-05-09 18:27 40.65168 -73.78699 30 ft 17 kts 61°
2026-05-09 18:28 40.65222 -73.78572 30 ft 15 kts 60°
2026-05-09 18:28 40.65261 -73.78460 28 ft 8 kts 79°
2026-05-09 18:28 40.65252 -73.78415 29 ft 2 kts 129°
2026-05-09 18:28 40.65213 -73.78406 30 ft 8 kts 195°
2026-05-09 18:29 40.65197 -73.78415 31 ft 0 kts 202°
2026-05-09 18:29 40.65189 -73.78414 27 ft 2 kts 171°
2026-05-09 18:29 40.65185 -73.78409 27 ft 1 kts 142°
2026-05-09 18:29 40.65169 -73.78394 30 ft 4 kts 144°
2026-05-09 18:30 40.65154 -73.78382 26 ft 2 kts 153°
2026-05-09 18:30 40.65144 -73.78376 30 ft 1 kts 153°
2026-05-09 18:30 40.65136 -73.78371 28 ft 1 kts 154°
2026-05-09 18:30 40.65124 -73.78363 30 ft 0 kts 155°